This is the latest recevied weather packets stored in our database for station/object W5LND-10. If no packets are shown the sender has not sent any weather packets the latest 10 day(s).
| Time | Temp. | Humidity | Pressure | Rain* | Wind** | Luminosity | Snow |
|---|---|---|---|---|---|---|---|
| 1777849875 | 24.44° C | 38% | 1011.8 hPa | 0 mm | - | 202 W/m² | - |
| 1777849575 | 24.44° C | 37% | 1011.8 hPa | 0 mm | - | 236 W/m² | - |
| 1777849275 | 25° C | 37% | 1011.9 hPa | 0 mm | - | 237 W/m² | - |
| 1777848975 | 25° C | 36% | 1011.8 hPa | 0 mm | - | 211 W/m² | - |
| 1777848689 | 25° C | 37% | 1011.8 hPa | 0 mm | - | 279 W/m² | - |
| 1777848375 | 25° C | 37% | 1011.8 hPa | 0 mm | - | 439 W/m² | - |
| 1777848075 | 25° C | 37% | 1011.9 hPa | 0 mm | - | 575 W/m² | - |
| 1777847775 | 24.44° C | 37% | 1011.9 hPa | 0 mm | - | 536 W/m² | - |
| 1777847475 | 24.44° C | 37% | 1011.9 hPa | 0 mm | - | 424 W/m² | - |
| 1777847175 | 24.44° C | 37% | 1012 hPa | 0 mm | - | 376 W/m² | - |
| 1777846879 | 24.44° C | 36% | 1012.2 hPa | 0 mm | - | 322 W/m² | - |
| 1777846575 | 25° C | 35% | 1012.2 hPa | 0 mm | - | 315 W/m² | - |
| 1777846275 | 25.56° C | 35% | 1012.2 hPa | 0 mm | - | 278 W/m² | - |
| 1777845975 | 25.56° C | 35% | 1012.2 hPa | 0 mm | - | 489 W/m² | - |
| 1777845675 | 25.56° C | 36% | 1012.2 hPa | 0 mm | - | 578 W/m² | - |
| 1777845375 | 25.56° C | 36% | 1012.3 hPa | 0 mm | - | 633 W/m² | - |
| 1777845075 | 25° C | 35% | 1012.5 hPa | 0 mm | - | 631 W/m² | - |
| 1777844775 | 25° C | 35% | 1012.6 hPa | 0 mm | - | 754 W/m² | - |
| 1777844475 | 25° C | 36% | 1012.8 hPa | 0 mm | - | 603 W/m² | - |
| 1777844175 | 25° C | 36% | 1012.8 hPa | 0 mm | - | 504 W/m² | - |
| 1777843875 | 25° C | 37% | 1012.9 hPa | 0 mm | - | 540 W/m² | - |
| 1777843575 | 25° C | 36% | 1013.1 hPa | 0 mm | - | 427 W/m² | - |
| 1777843275 | 25° C | 35% | 1013.3 hPa | 0 mm | - | 390 W/m² | - |
| 1777842975 | 25° C | 36% | 1013.5 hPa | 0 mm | - | 645 W/m² | - |
| 1777842675 | 25.56° C | 36% | 1013.6 hPa | 0 mm | - | 568 W/m² | - |
* Rain latest hour (hover to see other rain measurements)
** Current wind speed in m/s (hover to see current wind gust speed)